Olean, NY

2:32 PM EDT on May 26, 2018 (GMT -0400)
Cattaraugus County-Olean

Weather History for KOLE - November, 2012

Change the Weather History Date:

Sunday, November 18, 2012

  Actual Average (WUND) Record (WUND)
Temperature  
Mean Temperature 39 °F -  
Max Temperature 48 °F - - (-1)
Min Temperature 30 °F - - (-1)
Degree Days  
Heating Degree Days 26    
Moisture  
Dew Point 29 °F    
Average Humidity 73    
Maximum Humidity 93    
Minimum Humidity 46    
Precipitation  
Precipitation 0.00 in - - ()
Sea Level Pressure  
Sea Level Pressure 30.51 in    
Wind  
Wind Speed 3 mph ()    
Max Wind Speed 10 mph    
Max Gust Speed -    
Visibility 10.0 miles    
Events      
Averages and records for this station are not official NWS values.
T = Trace of Precipitation, MM = Missing Value Source: Averaged Metar Reports

Daily Weather History Graph

Daily Weather History Graph

Search for Another Location

Airport or City:

Astronomy

Nov. 18, 2012 Rise Set
Actual Time 7:08 AM EST 4:48 PM EST
Civil Twilight 6:37 AM EST 5:19 PM EST
Nautical Twilight 6:03 AM EST 5:53 PM EST
Astronomical Twilight 5:30 AM EST 6:26 PM EST
Moon 11:32 AM EST (11/18) 10:07 PM EST (11/18)
Length of Visible Light 10h 41m
Length of Day
9h 40m
Waxing Crescent, 30% of the Moon is Illuminated
Nov 18
Waxing Crescent
Nov 20
First Quarter
Nov 28
Full
Dec 6
Last Quarter
Dec 13
New

Hourly Weather History & Observations

Time (EST) Temp. Windchill Dew Point Humidity Pressure Visibility Wind Dir Wind Speed Gust Speed Precip Events Conditions
12:15 AM 32.0 °F 28.7 °F 28.4 °F 87% 30.55 in 10.0 mi East 3.5 mph - N/A   Clear
12:35 AM 32.0 °F 26.4 °F 26.6 °F 80% 30.54 in 10.0 mi ENE 5.8 mph - N/A   Clear
12:55 AM 32.0 °F 28.7 °F 28.4 °F 87% 30.54 in 10.0 mi East 3.5 mph - N/A   Clear
1:15 AM 32.0 °F 28.7 °F 28.4 °F 87% 30.55 in 10.0 mi SE 3.5 mph - N/A   Clear
1:35 AM 32.0 °F 28.7 °F 28.4 °F 87% 30.55 in 10.0 mi SE 3.5 mph - N/A   Clear
1:55 AM 32.0 °F - 28.4 °F 87% 30.55 in 10.0 mi Calm Calm - N/A   Clear
2:15 AM 32.0 °F - 28.4 °F 87% 30.56 in 10.0 mi Calm Calm - N/A   Clear
2:35 AM 32.0 °F 28.7 °F 28.4 °F 87% 30.56 in 10.0 mi East 3.5 mph - N/A   Clear
2:55 AM 30.2 °F 26.7 °F 28.4 °F 93% 30.54 in 10.0 mi East 3.5 mph - N/A   Clear
3:15 AM 30.2 °F 26.7 °F 28.4 °F 93% 30.54 in 10.0 mi ESE 3.5 mph - N/A   Clear
3:35 AM 30.2 °F 26.7 °F 28.4 °F 93% 30.54 in 10.0 mi East 3.5 mph - N/A   Clear
3:55 AM 32.0 °F 27.5 °F 28.4 °F 87% 30.54 in 10.0 mi East 4.6 mph - N/A   Clear
4:15 AM 32.0 °F 28.7 °F 28.4 °F 87% 30.54 in 10.0 mi SSE 3.5 mph - N/A   Clear
4:35 AM 32.0 °F 28.7 °F 28.4 °F 87% 30.55 in 10.0 mi SSE 3.5 mph - N/A   Clear
4:55 AM 32.0 °F - 28.4 °F 87% 30.55 in 10.0 mi Calm Calm - N/A   Clear
5:15 AM 32.0 °F 28.7 °F 28.4 °F 87% 30.55 in 10.0 mi South 3.5 mph - N/A   Clear
5:35 AM 32.0 °F - 28.4 °F 87% 30.56 in 10.0 mi Calm Calm - N/A   Clear
5:55 AM 30.2 °F 26.7 °F 28.4 °F 93% 30.56 in 10.0 mi SSE 3.5 mph - N/A   Clear
6:15 AM 32.0 °F 28.7 °F 28.4 °F 87% 30.56 in 10.0 mi SSE 3.5 mph - N/A   Clear
6:35 AM 32.0 °F - 28.4 °F 87% 30.55 in 10.0 mi Calm Calm - N/A   Clear
6:55 AM 32.0 °F - 28.4 °F 87% 30.55 in 10.0 mi Calm Calm - N/A   Clear
7:15 AM 30.2 °F 26.7 °F 28.4 °F 93% 30.56 in 10.0 mi SSE 3.5 mph - N/A   Clear
7:35 AM 30.2 °F 26.7 °F 28.4 °F 93% 30.56 in 10.0 mi SSE 3.5 mph - N/A   Clear
7:55 AM 30.2 °F - 28.4 °F 93% 30.56 in 10.0 mi Calm Calm - N/A   Clear
8:15 AM 32.0 °F 28.7 °F 28.4 °F 87% 30.56 in 10.0 mi SSE 3.5 mph - N/A   Clear
8:35 AM 33.8 °F 28.6 °F 30.2 °F 87% 30.56 in 10.0 mi SSE 5.8 mph - N/A   Clear
8:55 AM 35.6 °F 31.7 °F 30.2 °F 81% 30.56 in 10.0 mi South 4.6 mph - N/A   Clear
9:15 AM 35.6 °F 32.8 °F 30.2 °F 81% 30.56 in 10.0 mi SSE 3.5 mph - N/A   Clear
9:35 AM 35.6 °F 32.8 °F 30.2 °F 81% 30.56 in 10.0 mi South 3.5 mph - N/A   Clear
9:55 AM 37.4 °F 34.9 °F 30.2 °F 75% 30.55 in 10.0 mi SSE 3.5 mph - N/A   Clear
10:15 AM 37.4 °F 34.9 °F 30.2 °F 75% 30.55 in 10.0 mi South 3.5 mph - N/A   Clear
10:35 AM 41.0 °F 39.0 °F 32.0 °F 70% 30.55 in 10.0 mi SSE 3.5 mph - N/A   Clear
10:55 AM 41.0 °F 38.0 °F 30.2 °F 65% 30.55 in 10.0 mi South 4.6 mph - N/A   Clear
11:15 AM 41.0 °F 38.0 °F 32.0 °F 70% 30.54 in 10.0 mi SSW 4.6 mph - N/A   Clear
11:35 AM 42.8 °F 39.3 °F 30.2 °F 61% 30.53 in 10.0 mi South 5.8 mph - N/A   Clear
11:55 AM 42.8 °F 40.1 °F 30.2 °F 61% 30.52 in 10.0 mi South 4.6 mph - N/A   Clear
12:15 PM 42.8 °F 40.1 °F 30.2 °F 61% 30.51 in 10.0 mi South 4.6 mph - N/A   Clear
12:35 PM 44.6 °F - 30.2 °F 57% 30.51 in 10.0 mi Calm Calm - N/A   Clear
12:55 PM 44.6 °F - 30.2 °F 57% 30.50 in 10.0 mi Calm Calm - N/A   Clear
1:15 PM 46.4 °F - 30.2 °F 53% 30.50 in 10.0 mi Calm Calm - N/A   Clear
1:35 PM 46.4 °F - 30.2 °F 53% 30.49 in 10.0 mi Calm Calm - N/A   Clear
1:55 PM 46.4 °F - 30.2 °F 53% 30.48 in 10.0 mi Calm Calm - N/A   Clear
2:15 PM 46.4 °F - 28.4 °F 50% 30.48 in 10.0 mi Calm Calm - N/A   Clear
2:35 PM 48.2 °F - 28.4 °F 46% 30.48 in 10.0 mi ESE 3.5 mph - N/A   Clear
2:55 PM 48.2 °F - 28.4 °F 46% 30.48 in 10.0 mi ESE 4.6 mph - N/A   Clear
3:15 PM 46.4 °F 44.3 °F 28.4 °F 50% 30.48 in 10.0 mi SE 4.6 mph - N/A   Clear
3:35 PM 46.4 °F 45.2 °F 26.6 °F 46% 30.48 in 10.0 mi East 3.5 mph - N/A   Clear
3:55 PM 46.4 °F 45.2 °F 28.4 °F 50% 30.48 in 10.0 mi East 3.5 mph - N/A   Clear
4:15 PM 44.6 °F 43.1 °F 28.4 °F 53% 30.48 in 10.0 mi East 3.5 mph - N/A   Clear
4:35 PM 44.6 °F - 28.4 °F 53% 30.48 in 10.0 mi Calm Calm - N/A   Clear
4:55 PM 42.8 °F - 26.6 °F 53% 30.48 in 10.0 mi Calm Calm - N/A   Clear
5:15 PM 42.8 °F 41.1 °F 28.4 °F 57% 30.48 in 10.0 mi East 3.5 mph - N/A   Clear
5:35 PM 41.0 °F 39.0 °F 28.4 °F 61% 30.48 in 10.0 mi East 3.5 mph - N/A   Clear
5:55 PM 42.8 °F 41.1 °F 28.4 °F 57% 30.48 in 10.0 mi ESE 3.5 mph - N/A   Clear
6:15 PM 41.0 °F 38.0 °F 28.4 °F 61% 30.48 in 10.0 mi ESE 4.6 mph - N/A   Clear
6:35 PM 41.0 °F - 28.4 °F 61% 30.48 in 10.0 mi Calm Calm - N/A   Clear
6:55 PM 41.0 °F 37.1 °F 26.6 °F 57% 30.48 in 10.0 mi SSE 5.8 mph - N/A   Clear
7:15 PM 41.0 °F 38.0 °F 26.6 °F 57% 30.48 in 10.0 mi SSE 4.6 mph - N/A   Clear
7:35 PM 41.0 °F 37.1 °F 28.4 °F 61% 30.47 in 10.0 mi SSE 5.8 mph - N/A   Clear
7:55 PM 39.2 °F 35.0 °F 28.4 °F 65% 30.48 in 10.0 mi South 5.8 mph - N/A   Clear
8:15 PM 37.4 °F 33.8 °F 28.4 °F 70% 30.48 in 10.0 mi South 4.6 mph - N/A   Clear
8:35 PM 37.4 °F 33.8 °F 28.4 °F 70% 30.47 in 10.0 mi South 4.6 mph - N/A   Clear
9:15 PM 37.4 °F 33.8 °F 28.4 °F 70% 30.47 in 10.0 mi South 4.6 mph - N/A   Clear
9:35 PM 35.6 °F 31.7 °F 28.4 °F 75% 30.47 in 10.0 mi SSE 4.6 mph - N/A   Clear
9:55 PM 35.6 °F 29.9 °F 28.4 °F 75% 30.46 in 10.0 mi South 6.9 mph - N/A   Clear
10:15 PM 35.6 °F 28.0 °F 28.4 °F 75% 30.45 in 10.0 mi South 10.4 mph - N/A   Clear
10:35 PM 35.6 °F 29.9 °F 28.4 °F 75% 30.45 in 10.0 mi South 6.9 mph - N/A   Clear
10:55 PM 35.6 °F 29.2 °F 28.4 °F 75% 30.44 in 10.0 mi South 8.1 mph - N/A   Clear
11:15 PM 33.8 °F 28.6 °F 28.4 °F 81% 30.44 in 10.0 mi South 5.8 mph - N/A   Clear
11:35 PM 33.8 °F 28.6 °F 28.4 °F 81% 30.44 in 10.0 mi South 5.8 mph - N/A   Clear
11:55 PM 33.8 °F 30.8 °F 28.4 °F 81% 30.45 in 10.0 mi SSW 3.5 mph - N/A   Clear